| time (UTC) | temp F | wind direction | speed MPH | gust MPH | rain 1hr in | rain 24hr in | rain mn in | humidity % | barometer mb |
| 20260505052858 | 55 | 161 | 1.0 | 3.0 | 0.00 | 0.00 | 0.00 | 63 | 1007.2 |
| 20260505052355 | 55 | 192 | 0.0 | 2.0 | 0.00 | 0.00 | 0.00 | 66 | 1007.2 |
| 20260505051852 | 55 | 117 | 1.0 | 1.0 | 0.00 | 0.00 | 0.00 | 64 | 1007.3 |
| 20260505051349 | 54 | 189 | 0.0 | 0.0 | 0.00 | 0.00 | 0.00 | 68 | 1007.3 |
| 20260505050847 | 53 | 196 | 1.0 | 4.0 | 0.00 | 0.00 | 0.00 | 66 | 1007.3 |
| 20260505050346 | 53 | 54 | 0.0 | 1.0 | 0.00 | 0.00 | 0.00 | 69 | 1007.3 |
| 20260505041313 | 51 | 80 | 0.0 | 0.0 | 0.00 | 0.00 | 0.00 | 71 | 1007.4 |
| 20260505040810 | 50 | 205 | 0.0 | 0.0 | 0.00 | 0.00 | 0.00 | 75 | 1007.2 |
| 20260505040308 | 50 | 220 | 0.0 | 0.0 | 0.00 | 0.00 | 0.00 | 74 | 1007.4 |
| 20260505035804 | 50 | 199 | 0.0 | 0.0 | 0.00 | 0.00 | 0.00 | 74 | 1007.4 |
| 20260505035300 | 51 | 220 | 0.0 | 0.0 | 0.00 | 0.00 | 0.00 | 73 | 1007.3 |
| 20260505034757 | 51 | 220 | 0.0 | 0.0 | 0.00 | 0.00 | 0.00 | 73 | 1007.1 |
| 20260505034254 | 51 | 220 | 0.0 | 0.0 | 0.00 | 0.00 | 0.00 | 72 | 1007.0 |
| 20260505033750 | 51 | 223 | 0.0 | 0.0 | 0.00 | 0.00 | 0.00 | 72 | 1007.1 |
| 20260505033248 | 51 | 191 | 0.0 | 0.0 | 0.00 | 0.00 | 0.00 | 71 | 1007.3 |
| 20260505032746 | 51 | 207 | 0.0 | 0.0 | 0.00 | 0.00 | 0.00 | 71 | 1007.3 |
| 20260505032242 | 51 | 224 | 0.0 | 0.0 | 0.00 | 0.00 | 0.00 | 72 | 1007.5 |
| 20260505031739 | 51 | 209 | 0.0 | 0.0 | 0.00 | 0.00 | 0.00 | 71 | 1007.6 |
| 20260505031235 | 51 | 210 | 0.0 | 0.0 | 0.00 | 0.00 | 0.00 | 70 | 1007.7 |
| 20260505030732 | 52 | 221 | 0.0 | 0.0 | 0.00 | 0.00 | 0.00 | 70 | 1007.5 |
| 20260505030228 | 52 | 216 | 0.0 | 0.0 | 0.00 | 0.00 | 0.00 | 69 | 1007.6 |
| 20260505025724 | 52 | 204 | 0.0 | 0.0 | 0.00 | 0.00 | 0.00 | 67 | 1007.8 |
| 20260505025223 | 52 | 216 | 0.0 | 0.0 | 0.00 | 0.00 | 0.00 | 68 | 1007.8 |
| 20260505024721 | 53 | 212 | 0.0 | 0.0 | 0.00 | 0.00 | 0.00 | 67 | 1007.8 |
| 20260505024217 | 53 | 224 | 0.0 | 0.0 | 0.00 | 0.00 | 0.00 | 67 | 1007.7 |
| 20260505023715 | 53 | 224 | 0.0 | 0.0 | 0.00 | 0.00 | 0.00 | 67 | 1007.9 |
| 20260505023212 | 54 | 224 | 0.0 | 0.0 | 0.00 | 0.00 | 0.00 | 66 | 1007.7 |
| 20260505022710 | 54 | 225 | 0.0 | 0.0 | 0.00 | 0.00 | 0.00 | 64 | 1008.0 |
| 20260505022206 | 55 | 218 | 0.0 | 0.0 | 0.00 | 0.00 | 0.00 | 62 | 1007.8 |
| 20260505021703 | 56 | 214 | 0.0 | 0.0 | 0.00 | 0.00 | 0.00 | 61 | 1007.8 |
| 20260505021200 | 56 | 198 | 0.0 | 0.0 | 0.00 | 0.00 | 0.00 | 61 | 1007.8 |
| 20260505020656 | 57 | 199 | 0.0 | 0.0 | 0.00 | 0.00 | 0.00 | 60 | 1007.8 |
| 20260505020151 | 57 | 174 | 0.0 | 0.0 | 0.00 | 0.00 | 0.00 | 60 | 1007.8 |
| 20260505015649 | 58 | 134 | 0.0 | 0.0 | 0.00 | 0.00 | 0.00 | 58 | 1007.9 |
| 20260505015145 | 57 | 231 | 0.0 | 0.0 | 0.00 | 0.00 | 0.00 | 57 | 1007.8 |
| 20260505014642 | 57 | 208 | 0.0 | 1.0 | 0.00 | 0.00 | 0.00 | 59 | 1007.8 |
| 20260505014139 | 57 | 204 | 0.0 | 2.0 | 0.00 | 0.00 | 0.00 | 60 | 1007.8 |
| 20260505013637 | 57 | 83 | 0.0 | 0.0 | 0.00 | 0.00 | 0.00 | 56 | 1007.7 |
| 20260505013134 | 57 | 185 | 0.0 | 0.0 | 0.00 | 0.00 | 0.00 | 58 | 1007.7 |
| 20260505012632 | 57 | 291 | 0.0 | 0.0 | 0.00 | 0.00 | 0.00 | 57 | 1007.8 |
| 20260505012128 | 57 | 175 | 2.0 | 2.0 | 0.00 | 0.00 | 0.00 | 58 | 1007.7 |
| 20260505011624 | 57 | 189 | 0.0 | 1.0 | 0.00 | 0.00 | 0.00 | 59 | 1007.9 |
| 20260505011122 | 56 | 249 | 0.0 | 0.0 | 0.00 | 0.00 | 0.00 | 57 | 1007.7 |
| 20260505010617 | 56 | 213 | 0.0 | 0.0 | 0.00 | 0.00 | 0.00 | 57 | 1007.7 |
| 20260505010114 | 56 | 212 | 0.0 | 0.0 | 0.00 | 0.00 | 0.00 | 59 | 1007.8 |
| 20260505005609 | 56 | 135 | 0.0 | 3.0 | 0.00 | 0.00 | 0.00 | 59 | 1007.5 |
| 20260505005101 | 56 | 206 | 0.0 | 2.0 | 0.00 | 0.00 | 0.00 | 59 | 1007.6 |
| 20260505004558 | 55 | 142 | 0.0 | 0.0 | 0.00 | 0.00 | 0.00 | 59 | 1007.5 |
| 20260505004055 | 55 | 178 | 0.0 | 0.0 | 0.00 | 0.00 | 0.00 | 62 | 1007.2 |
| 20260505003552 | 56 | 211 | 0.0 | 0.0 | 0.00 | 0.00 | 0.00 | 60 | 1007.3 |
| 20260505003050 | 56 | 224 | 0.0 | 0.0 | 0.00 | 0.00 | 0.00 | 59 | 1007.3 |
| 20260505002549 | 57 | 214 | 0.0 | 0.0 | 0.00 | 0.00 | 0.00 | 58 | 1007.4 |
| 20260505002043 | 57 | 199 | 0.0 | 0.0 | 0.00 | 0.00 | 0.00 | 57 | 1007.2 |
| 20260505001540 | 58 | 192 | 0.0 | 0.0 | 0.00 | 0.00 | 0.00 | 55 | 1007.3 |
| 20260505001037 | 58 | 236 | 0.0 | 0.0 | 0.00 | 0.00 | 0.00 | 54 | 1007.2 |
| 20260505000535 | 59 | 224 | 0.0 | 0.0 | 0.00 | 0.00 | 0.00 | 51 | 1007.1 |
| 20260505000032 | 60 | 212 | 0.0 | 0.0 | 0.00 | 0.00 | 0.00 | 52 | 1007.2 |
| 20260504235529 | 61 | 196 | 0.0 | 0.0 | 0.00 | 0.00 | 0.00 | 48 | 1006.9 |
| 20260504235025 | 61 | 200 | 0.0 | 2.0 | 0.00 | 0.00 | 0.00 | 48 | 1007.1 |
| 20260504234523 | 62 | 222 | 0.0 | 1.0 | 0.00 | 0.00 | 0.00 | 47 | 1006.8 |
| 20260504234020 | 61 | 205 | 0.0 | 0.0 | 0.00 | 0.00 | 0.00 | 47 | 1006.9 |
| 20260504233515 | 61 | 164 | 0.0 | 0.0 | 0.00 | 0.00 | 0.00 | 47 | 1006.9 |
| 20260504233012 | 62 | 133 | 0.0 | 1.0 | 0.00 | 0.00 | 0.00 | 47 | 1006.6 |
| 20260504232509 | 62 | 242 | 1.0 | 1.0 | 0.00 | 0.00 | 0.00 | 45 | 1006.6 |
| 20260504232007 | 63 | 211 | 0.0 | 2.0 | 0.00 | 0.00 | 0.00 | 46 | 1006.6 |
| 20260504231503 | 63 | 203 | 0.0 | 0.0 | 0.00 | 0.00 | 0.00 | 45 | 1006.6 |
| 20260504230959 | 63 | 114 | 0.0 | 0.0 | 0.00 | 0.00 | 0.00 | 45 | 1006.6 |
| 20260504230455 | 64 | 223 | 0.0 | 0.0 | 0.00 | 0.00 | 0.00 | 43 | 1006.8 |
| 20260504225955 | 64 | 88 | 1.0 | 2.0 | 0.00 | 0.00 | 0.00 | 44 | 1006.6 |
| 20260504225451 | 64 | 140 | 1.0 | 1.0 | 0.00 | 0.00 | 0.00 | 44 | 1006.4 |
| 20260504224948 | 64 | 285 | 0.0 | 4.0 | 0.00 | 0.00 | 0.00 | 44 | 1006.5 |
| 20260504224444 | 64 | 224 | 0.0 | 0.0 | 0.00 | 0.00 | 0.00 | 45 | 1006.4 |
| 20260504223942 | 64 | 140 | 4.0 | 6.0 | 0.00 | 0.00 | 0.00 | 43 | 1006.3 |
| 20260504223438 | 64 | 103 | 0.0 | 3.0 | 0.00 | 0.00 | 0.00 | 42 | 1006.2 |
| 20260504222933 | 64 | 316 | 0.0 | 1.0 | 0.00 | 0.00 | 0.00 | 43 | 1006.3 |
| 20260504222431 | 64 | 145 | 0.0 | 1.0 | 0.00 | 0.00 | 0.00 | 43 | 1006.4 |
| 20260504221929 | 64 | 245 | 0.0 | 9.0 | 0.00 | 0.00 | 0.00 | 43 | 1006.2 |
| 20260504221425 | 64 | 77 | 1.0 | 2.0 | 0.00 | 0.00 | 0.00 | 42 | 1006.2 |
| 20260504220923 | 64 | 126 | 0.0 | 2.0 | 0.00 | 0.00 | 0.00 | 43 | 1006.4 |
| 20260504220419 | 64 | 255 | 0.0 | 0.0 | 0.00 | 0.00 | 0.00 | 42 | 1006.1 |
| 20260504215916 | 64 | 225 | 0.0 | 1.0 | 0.00 | 0.00 | 0.00 | 42 | 1006.3 |
| 20260504215413 | 64 | 286 | 4.0 | 4.0 | 0.00 | 0.00 | 0.00 | 42 | 1006.2 |
| 20260504214909 | 64 | 345 | 0.0 | 2.0 | 0.00 | 0.00 | 0.00 | 42 | 1006.4 |
| 20260504214406 | 65 | 229 | 1.0 | 4.0 | 0.00 | 0.00 | 0.00 | 42 | 1006.5 |
| 20260504213903 | 65 | 158 | 1.0 | 2.0 | 0.00 | 0.00 | 0.00 | 42 | 1006.4 |
| 20260504213359 | 65 | 234 | 2.0 | 3.0 | 0.00 | 0.00 | 0.00 | 43 | 1006.5 |
| 20260504212856 | 65 | 56 | 0.0 | 2.0 | 0.00 | 0.00 | 0.00 | 42 | 1006.3 |
| 20260504212352 | 65 | 196 | 4.0 | 7.0 | 0.00 | 0.00 | 0.00 | 40 | 1006.8 |
| 20260504211850 | 65 | 116 | 2.0 | 8.0 | 0.00 | 0.00 | 0.00 | 40 | 1006.9 |
| 20260504211346 | 65 | 102 | 0.0 | 0.0 | 0.00 | 0.00 | 0.00 | 41 | 1006.9 |
| 20260504210843 | 65 | 232 | 0.0 | 3.0 | 0.00 | 0.00 | 0.00 | 42 | 1006.8 |
| 20260504210340 | 65 | 234 | 0.0 | 2.0 | 0.00 | 0.00 | 0.00 | 42 | 1006.6 |
| 20260504205837 | 65 | 240 | 0.0 | 1.0 | 0.00 | 0.00 | 0.00 | 42 | 1006.8 |
| 20260504205335 | 64 | 141 | 2.0 | 6.0 | 0.00 | 0.00 | 0.00 | 41 | 1006.8 |
| 20260504204833 | 64 | 149 | 2.0 | 7.0 | 0.00 | 0.00 | 0.00 | 41 | 1006.8 |
| 20260504204331 | 65 | 215 | 2.0 | 2.0 | 0.00 | 0.00 | 0.00 | 43 | 1006.8 |
| 20260504203830 | 65 | 165 | 1.0 | 2.0 | 0.00 | 0.00 | 0.00 | 41 | 1006.8 |
| 20260504203327 | 66 | 75 | 0.0 | 2.0 | 0.00 | 0.00 | 0.00 | 39 | 1007.0 |
| 20260504202822 | 65 | 223 | 2.0 | 4.0 | 0.00 | 0.00 | 0.00 | 39 | 1006.8 |
| 20260504202320 | 66 | 207 | 0.0 | 6.0 | 0.00 | 0.00 | 0.00 | 39 | 1007.0 |
| 20260504201817 | 65 | 306 | 1.0 | 8.0 | 0.00 | 0.00 | 0.00 | 41 | 1006.8 |
| 20260504201314 | 65 | 239 | 0.0 | 1.0 | 0.00 | 0.00 | 0.00 | 42 | 1007.2 |
| 20260504200811 | 65 | 260 | 0.0 | 2.0 | 0.00 | 0.00 | 0.00 | 41 | 1007.1 |
| 20260504200308 | 65 | 86 | 3.0 | 6.0 | 0.00 | 0.00 | 0.00 | 42 | 1007.1 |
| 20260504195804 | 65 | 159 | 3.0 | 4.0 | 0.00 | 0.00 | 0.00 | 40 | 1007.2 |
| 20260504195300 | 64 | 210 | 0.0 | 4.0 | 0.00 | 0.00 | 0.00 | 41 | 1007.2 |
| 20260504194757 | 64 | 155 | 7.0 | 11.0 | 0.00 | 0.00 | 0.00 | 44 | 1007.2 |
| 20260504194253 | 65 | 52 | 1.0 | 7.0 | 0.00 | 0.00 | 0.00 | 41 | 1007.1 |
| 20260504193749 | 64 | 260 | 0.0 | 4.0 | 0.00 | 0.00 | 0.00 | 40 | 1007.0 |
| 20260504193247 | 64 | 274 | 1.0 | 6.0 | 0.00 | 0.00 | 0.00 | 44 | 1007.2 |
| 20260504192745 | 64 | 89 | 1.0 | 6.0 | 0.00 | 0.00 | 0.00 | 41 | 1007.3 |
| 20260504192243 | 65 | 128 | 3.0 | 4.0 | 0.00 | 0.00 | 0.00 | 40 | 1007.2 |
| 20260504191741 | 65 | 87 | 2.0 | 4.0 | 0.00 | 0.00 | 0.00 | 41 | 1007.2 |
| 20260504191238 | 65 | 55 | 1.0 | 1.0 | 0.00 | 0.00 | 0.00 | 41 | 1007.2 |
| 20260504190733 | 65 | 257 | 1.0 | 6.0 | 0.00 | 0.00 | 0.00 | 41 | 1007.2 |
| 20260504190230 | 65 | 216 | 0.0 | 3.0 | 0.00 | 0.00 | 0.00 | 42 | 1007.3 |
| 20260504185726 | 63 | 100 | 5.0 | 9.0 | 0.00 | 0.00 | 0.00 | 42 | 1007.2 |
| 20260504185223 | 63 | 165 | 2.0 | 3.0 | 0.00 | 0.00 | 0.00 | 42 | 1007.4 |
| 20260504184719 | 63 | 149 | 4.0 | 6.0 | 0.00 | 0.00 | 0.00 | 42 | 1007.3 |
| 20260504184216 | 63 | 171 | 2.0 | 6.0 | 0.00 | 0.00 | 0.00 | 42 | 1007.3 |
| 20260504183711 | 63 | 272 | 2.0 | 7.0 | 0.00 | 0.00 | 0.00 | 42 | 1007.3 |
| 20260504183209 | 64 | 124 | 0.0 | 3.0 | 0.00 | 0.00 | 0.00 | 42 | 1007.3 |
| 20260504182707 | 64 | 219 | 2.0 | 10.0 | 0.00 | 0.00 | 0.00 | 42 | 1007.2 |
| 20260504182204 | 64 | 253 | 2.0 | 4.0 | 0.00 | 0.00 | 0.00 | 41 | 1007.2 |
| 20260504181701 | 63 | 82 | 1.0 | 7.0 | 0.00 | 0.00 | 0.00 | 44 | 1007.3 |
| 20260504181159 | 62 | 116 | 2.0 | 3.0 | 0.00 | 0.00 | 0.00 | 42 | 1007.0 |
| 20260504180657 | 64 | 66 | 3.0 | 4.0 | 0.00 | 0.00 | 0.00 | 43 | 1007.1 |
| 20260504180156 | 64 | 226 | 0.0 | 4.0 | 0.00 | 0.00 | 0.00 | 42 | 1007.3 |
| 20260504175653 | 64 | 334 | 1.0 | 7.0 | 0.00 | 0.00 | 0.00 | 42 | 1007.5 |
| 20260504175149 | 63 | 243 | 0.0 | 3.0 | 0.00 | 0.00 | 0.00 | 46 | 1007.4 |
| 20260504174647 | 65 | 255 | 1.0 | 4.0 | 0.00 | 0.00 | 0.00 | 43 | 1007.1 |
| 20260504174144 | 64 | 272 | 1.0 | 2.0 | 0.00 | 0.00 | 0.00 | 41 | 1007.3 |
| 20260504173641 | 64 | 177 | 0.0 | 7.0 | 0.00 | 0.00 | 0.00 | 41 | 1007.3 |
| 20260504173138 | 63 | 210 | 0.0 | 4.0 | 0.00 | 0.00 | 0.00 | 43 | 1007.3 |
| 20260504172635 | 62 | 119 | 3.0 | 4.0 | 0.00 | 0.00 | 0.00 | 45 | 1007.5 |
| 20260504172131 | 63 | 256 | 0.0 | 2.0 | 0.00 | 0.00 | 0.00 | 45 | 1007.4 |
| 20260504171628 | 62 | 327 | 0.0 | 2.0 | 0.00 | 0.00 | 0.00 | 42 | 1007.6 |
| 20260504171125 | 62 | 250 | 2.0 | 8.0 | 0.00 | 0.00 | 0.00 | 43 | 1007.5 |
| 20260504170621 | 62 | 0 | 2.0 | 3.0 | 0.00 | 0.00 | 0.00 | 43 | 1007.5 |
| 20260504170119 | 62 | 136 | 2.0 | 4.0 | 0.00 | 0.00 | 0.00 | 41 | 1007.5 |
| 20260504151004 | 59 | 114 | 4.0 | 7.0 | 0.00 | 0.00 | 0.00 | 45 | 1008.1 |
| 20260504150502 | 59 | 92 | 1.0 | 3.0 | 0.00 | 0.00 | 0.00 | 42 | 1008.3 |
| 20260504140928 | 55 | 149 | 0.0 | 4.0 | 0.00 | 0.00 | 0.00 | 47 | 1008.3 |
| 20260504140424 | 56 | 59 | 2.0 | 7.0 | 0.00 | 0.00 | 0.00 | 47 | 1008.2 |
| 20260504130349 | 51 | 252 | 1.0 | 3.0 | 0.00 | 0.00 | 0.00 | 52 | 1008.9 |
| 20260504120312 | 50 | 345 | 1.0 | 4.0 | 0.00 | 0.00 | 0.00 | 51 | 1009.1 |
| 20260504110236 | 44 | 198 | 1.0 | 3.0 | 0.00 | 0.00 | 0.00 | 65 | 1008.9 |
| 20260504100159 | 39 | 222 | 0.0 | 0.0 | 0.00 | 0.00 | 0.00 | 76 | 1008.6 |
| 20260504090122 | 41 | 195 | 1.0 | 3.0 | 0.00 | 0.00 | 0.00 | 71 | 1008.8 |
| 20260504081552 | 41 | 209 | 0.0 | 0.0 | 0.00 | 0.00 | 0.00 | 70 | 1008.9 |
| 20260504081048 | 41 | 140 | 0.0 | 0.0 | 0.00 | 0.00 | 0.00 | 69 | 1008.8 |
| 20260504080545 | 41 | 229 | 0.0 | 1.0 | 0.00 | 0.00 | 0.00 | 69 | 1009.0 |